KC8BSD Weather Reports


time (UTC)temp
C
wind
direction
speed
KPH
gust
KPH
rain 1hr
cm
rain 24hr
cm
rain mn
cm
humidity
%
barometer
mb
20260510225543 15 24 4.8 4.8 0.00 0.00 0.00 30 1020.2
20260510225039 15 245 3.2 4.8 0.00 0.00 0.00 32 1020.1
20260510224535 15 236 4.8 8.0 0.00 0.00 0.00 33 1020.0
20260510224031 15 271 1.6 3.2 0.00 0.00 0.00 34 1020.1
20260510223530 15 288 1.6 1.6 0.00 0.00 0.00 34 1020.2
20260510223027 15 0 4.8 9.7 0.00 0.00 0.00 33 1020.0
20260510222524 15 39 1.6 3.2 0.00 0.00 0.00 34 1020.2
20260510222020 15 11 4.8 8.0 0.00 0.00 0.00 32 1020.0
20260510221516 15 30 6.4 8.0 0.00 0.00 0.00 33 1020.0
20260510221012 15 29 6.4 9.7 0.00 0.00 0.00 33 1020.0
20260510220509 15 249 1.6 3.2 0.00 0.00 0.00 34 1019.8
20260510220005 15 262 0.0 0.0 0.00 0.00 0.00 35 1019.9
20260510215502 15 266 3.2 3.2 0.00 0.00 0.00 34 1020.0
20260510214959 15 320 1.6 3.2 0.00 0.00 0.00 33 1019.9
20260510214456 15 263 1.6 1.6 0.00 0.00 0.00 34 1020.0
20260510213953 15 359 1.6 1.6 0.00 0.00 0.00 32 1019.7
20260510213450 16 13 4.8 9.7 0.00 0.00 0.00 33 1019.6
20260510212946 16 45 1.6 3.2 0.00 0.00 0.00 32 1019.7
20260510212443 16 222 3.2 4.8 0.00 0.00 0.00 32 1019.5
20260510211939 16 161 1.6 1.6 0.00 0.00 0.00 34 1019.5
20260510211432 16 359 4.8 8.0 0.00 0.00 0.00 31 1019.4
20260510210931 17 271 1.6 1.6 0.00 0.00 0.00 34 1019.5
20260510210427 16 327 3.2 4.8 0.00 0.00 0.00 30 1019.4
20260510205926 16 3 4.8 8.0 0.00 0.00 0.00 31 1019.4
20260510205421 16 3 1.6 3.2 0.00 0.00 0.00 33 1019.4
20260510204918 16 269 0.0 1.6 0.00 0.00 0.00 33 1019.5
20260510204414 17 263 0.0 1.6 0.00 0.00 0.00 31 1019.5
20260510203911 16 312 1.6 3.2 0.00 0.00 0.00 31 1019.1
20260510203409 16 196 3.2 3.2 0.00 0.00 0.00 30 1019.3
20260510202908 15 21 3.2 3.2 0.00 0.00 0.00 33 1019.4
20260510202404 15 280 4.8 4.8 0.00 0.00 0.00 34 1019.4
20260510201901 15 28 1.6 1.6 0.00 0.00 0.00 33 1019.5
20260510201358 15 64 3.2 3.2 0.00 0.00 0.00 31 1019.6
20260510200855 16 57 4.8 4.8 0.00 0.00 0.00 32 1019.7
20260510200354 17 24 8.0 11.3 0.00 0.00 0.00 29 1019.5
20260510195849 16 155 4.8 4.8 0.00 0.00 0.00 32 1019.9
20260510195346 15 263 3.2 4.8 0.00 0.00 0.00 32 1019.9
20260510194840 16 39 6.4 8.0 0.00 0.00 0.00 31 1019.7
20260510194337 15 316 1.6 1.6 0.00 0.00 0.00 31 1020.0
20260510193827 16 7 6.4 8.0 0.00 0.00 0.00 30 1019.7
20260510193322 15 270 0.0 0.0 0.00 0.00 0.00 34 1019.8
20260510192818 15 251 4.8 4.8 0.00 0.00 0.00 31 1019.8
20260510192313 15 29 4.8 4.8 0.00 0.00 0.00 31 1019.7
20260510191810 17 45 4.8 4.8 0.00 0.00 0.00 31 1019.8
20260510191306 16 262 1.6 3.2 0.00 0.00 0.00 30 1020.0
20260510190804 16 24 4.8 4.8 0.00 0.00 0.00 29 1019.7
20260510190301 16 263 1.6 3.2 0.00 0.00 0.00 29 1019.9
20260510185757 15 30 4.8 4.8 0.00 0.00 0.00 31 1020.0
20260510185255 15 29 1.6 3.2 0.00 0.00 0.00 32 1020.1
20260510184752 16 259 1.6 1.6 0.00 0.00 0.00 30 1019.8
20260510184248 17 266 1.6 3.2 0.00 0.00 0.00 28 1019.9
20260510183743 16 249 0.0 0.0 0.00 0.00 0.00 32 1019.8
20260510183238 17 339 4.8 8.0 0.00 0.00 0.00 28 1019.7
20260510182735 17 280 0.0 1.6 0.00 0.00 0.00 33 1019.6
20260510182231 16 251 3.2 3.2 0.00 0.00 0.00 33 1020.1
20260510181728 16 84 1.6 3.2 0.00 0.00 0.00 30 1019.8
20260510181225 17 43 11.3 16.1 0.00 0.00 0.00 29 1019.5
20260510180721 16 333 3.2 3.2 0.00 0.00 0.00 29 1019.8
20260510180219 16 20 1.6 3.2 0.00 0.00 0.00 32 1019.5
20260510175715 16 274 1.6 1.6 0.00 0.00 0.00 34 1019.6
20260510175211 15 287 3.2 3.2 0.00 0.00 0.00 28 1019.5
20260510174708 16 43 4.8 4.8 0.00 0.00 0.00 30 1019.5
20260510174205 15 45 3.2 3.2 0.00 0.00 0.00 30 1019.5
20260510173701 16 0 1.6 3.2 0.00 0.00 0.00 29 1019.5
20260510173157 15 223 3.2 3.2 0.00 0.00 0.00 34 1019.6
20260510172652 15 258 1.6 3.2 0.00 0.00 0.00 30 1019.7
20260510172149 16 38 6.4 9.7 0.00 0.00 0.00 29 1019.4
20260510171646 15 256 3.2 3.2 0.00 0.00 0.00 36 1019.8
20260510171143 15 111 4.8 4.8 0.00 0.00 0.00 30 1019.6
20260510170639 15 11 4.8 8.0 0.00 0.00 0.00 32 1019.6
20260510170136 16 330 4.8 8.0 0.00 0.00 0.00 30 1019.7
20260510165632 16 20 1.6 3.2 0.00 0.00 0.00 31 1019.7
20260510165128 15 78 3.2 3.2 0.00 0.00 0.00 34 1020.0
20260510164626 15 22 6.4 9.7 0.00 0.00 0.00 31 1019.9
20260510164122 15 272 1.6 3.2 0.00 0.00 0.00 35 1019.7
20260510163617 15 108 4.8 4.8 0.00 0.00 0.00 31 1019.7
20260510163114 14 300 3.2 3.2 0.00 0.00 0.00 32 1019.5
20260510162614 15 348 3.2 3.2 0.00 0.00 0.00 34 1019.8
20260510162110 15 16 3.2 3.2 0.00 0.00 0.00 32 1019.7
20260510161606 14 261 0.0 0.0 0.00 0.00 0.00 37 1019.5
20260510161104 15 30 4.8 8.0 0.00 0.00 0.00 35 1019.7
20260510160600 14 24 4.8 4.8 0.00 0.00 0.00 34 1019.5
20260510160100 14 53 1.6 1.6 0.00 0.00 0.00 37 1019.5
20260510155557 14 256 3.2 3.2 0.00 0.00 0.00 35 1019.6
20260510155053 14 348 4.8 4.8 0.00 0.00 0.00 35 1019.7
20260510154548 15 31 3.2 4.8 0.00 0.00 0.00 35 1019.5
20260510154044 15 55 4.8 8.0 0.00 0.00 0.00 36 1019.5
20260510153539 15 270 1.6 1.6 0.00 0.00 0.00 37 1019.3
20260510153036 13 12 1.6 3.2 0.00 0.00 0.00 38 1019.3
20260510152533 13 43 4.8 8.0 0.00 0.00 0.00 36 1019.3
20260510152030 13 311 1.6 1.6 0.00 0.00 0.00 36 1019.2
20260510151526 14 259 1.6 3.2 0.00 0.00 0.00 40 1019.1
20260510151024 14 219 3.2 8.0 0.00 0.00 0.00 37 1019.0
20260510150519 13 283 3.2 4.8 0.00 0.00 0.00 37 1019.2
20260510150015 13 340 3.2 4.8 0.00 0.00 0.00 38 1019.2
20260510145512 13 294 3.2 4.8 0.00 0.00 0.00 40 1019.2
20260510145008 13 285 1.6 1.6 0.00 0.00 0.00 39 1018.8
20260510144506 13 237 1.6 1.6 0.00 0.00 0.00 39 1018.9
20260510144001 13 105 1.6 3.2 0.00 0.00 0.00 41 1018.9
20260510143456 12 335 6.4 8.0 0.00 0.00 0.00 41 1018.8
20260510142953 13 285 1.6 1.6 0.00 0.00 0.00 41 1018.8
20260510142450 12 346 3.2 3.2 0.00 0.00 0.00 40 1018.7
20260510141947 12 16 3.2 3.2 0.00 0.00 0.00 44 1018.6
20260510141444 12 14 8.0 9.7 0.00 0.00 0.00 42 1018.7
20260510140941 12 213 4.8 4.8 0.00 0.00 0.00 48 1018.6
20260510140437 12 51 6.4 9.7 0.00 0.00 0.00 44 1018.8
20260510135936 12 249 4.8 8.0 0.00 0.00 0.00 44 1018.6
20260510135432 12 23 3.2 4.8 0.00 0.00 0.00 45 1018.5
20260510134930 12 239 1.6 3.2 0.00 0.00 0.00 45 1018.6
20260510134426 11 33 3.2 4.8 0.00 0.00 0.00 47 1018.6
20260510133922 12 65 0.0 1.6 0.00 0.00 0.00 48 1018.8
20260510133419 10 251 0.0 1.6 0.00 0.00 0.00 52 1018.7
20260510132914 11 313 3.2 4.8 0.00 0.00 0.00 46 1018.6
20260510132413 11 49 0.0 1.6 0.00 0.00 0.00 47 1018.5
20260510131909 10 281 1.6 3.2 0.00 0.00 0.00 49 1018.5
20260510131407 10 20 3.2 3.2 0.00 0.00 0.00 51 1018.6
20260510130903 10 261 0.0 0.0 0.00 0.00 0.00 51 1018.4
20260510130400 10 191 1.6 3.2 0.00 0.00 0.00 52 1018.3
20260510125857 10 285 0.0 1.6 0.00 0.00 0.00 51 1018.3
20260510125353 10 257 0.0 0.0 0.00 0.00 0.00 55 1018.1
20260510124850 10 312 3.2 3.2 0.00 0.00 0.00 52 1018.2
20260510124347 9 255 0.0 0.0 0.00 0.00 0.00 53 1018.2
20260510123842 9 266 1.6 1.6 0.00 0.00 0.00 53 1018.2
20260510123338 9 329 1.6 1.6 0.00 0.00 0.00 52 1018.0
20260510122835 9 333 1.6 1.6 0.00 0.00 0.00 54 1018.0
20260510122330 9 290 1.6 1.6 0.00 0.00 0.00 54 1018.0
20260510121827 8 273 0.0 0.0 0.00 0.00 0.00 56 1017.9
20260510121325 8 263 1.6 3.2 0.00 0.00 0.00 56 1018.1
20260510120822 8 255 1.6 1.6 0.00 0.00 0.00 58 1018.1
20260510120319 8 283 0.0 1.6 0.00 0.00 0.00 56 1018.0
20260510115814 7 258 0.0 0.0 0.00 0.00 0.00 58 1017.9
20260510115312 7 254 1.6 3.2 0.00 0.00 0.00 60 1017.9
20260510114813 6 282 0.0 0.0 0.00 0.00 0.00 65 1017.9
20260510114310 6 263 0.0 0.0 0.00 0.00 0.00 68 1017.8
20260510113805 5 269 0.0 0.0 0.00 0.00 0.00 70 1018.0
20260510113302 5 271 0.0 0.0 0.00 0.00 0.00 77 1017.7
20260510112758 3 259 0.0 0.0 0.00 0.00 0.00 80 1017.8
20260510112256 2 263 0.0 0.0 0.00 0.00 0.00 82 1017.9
20260510111751 2 264 0.0 0.0 0.00 0.00 0.00 82 1017.9
20260510111248 1 263 0.0 0.0 0.00 0.00 0.00 81 1017.5
20260510110748 1 263 0.0 0.0 0.00 0.00 0.00 81 1017.8
20260510110246 1 264 0.0 0.0 0.00 0.00 0.00 80 1017.6
20260510105746 1 264 0.0 0.0 0.00 0.00 0.00 80 1017.5
20260510105241 1 264 0.0 0.0 0.00 0.00 0.00 79 1017.7
20260510104737 1 264 0.0 0.0 0.00 0.00 0.00 79 1017.4
20260510104235 1 264 0.0 0.0 0.00 0.00 0.00 79 1017.5
20260510103731 1 264 0.0 0.0 0.00 0.00 0.00 78 1017.2
20260510103229 1 264 0.0 0.0 0.00 0.00 0.00 78 1017.0
20260510102728 1 264 0.0 0.0 0.00 0.00 0.00 77 1017.2
20260510102224 1 264 0.0 0.0 0.00 0.00 0.00 77 1017.2
20260510101722 2 264 0.0 0.0 0.00 0.00 0.00 76 1017.1
20260510101220 2 264 0.0 0.0 0.00 0.00 0.00 76 1017.1
20260510100716 2 265 0.0 0.0 0.00 0.00 0.00 76 1017.1
20260510100215 2 264 0.0 0.0 0.00 0.00 0.00 76 1017.1
20260510095710 2 264 0.0 0.0 0.00 0.00 0.00 75 1016.9
20260510095205 2 264 0.0 0.0 0.00 0.00 0.00 74 1016.9
20260510094704 3 264 0.0 0.0 0.00 0.00 0.00 72 1016.9
20260510094200 3 265 0.0 0.0 0.00 0.00 0.00 72 1016.9
20260510093655 3 268 0.0 0.0 0.00 0.00 0.00 71 1017.1
20260510093153 3 272 0.0 0.0 0.00 0.00 0.00 70 1016.5
20260510092649 4 262 0.0 0.0 0.00 0.00 0.00 68 1016.5
20260510092144 4 266 0.0 0.0 0.00 0.00 0.00 68 1016.3
20260510091641 5 268 0.0 0.0 0.00 0.00 0.00 66 1016.1
20260510091137 5 268 0.0 0.0 0.00 0.00 0.00 64 1015.7
20260510090634 5 331 1.6 3.2 0.00 0.00 0.00 64 1015.7
20260510090130 5 265 0.0 0.0 0.00 0.00 0.00 63 1015.7
20260510085625 6 259 0.0 0.0 0.00 0.00 0.00 63 1016.1
20260510085121 6 292 0.0 0.0 0.00 0.00 0.00 62 1015.8
20260510084612 6 17 3.2 3.2 0.00 0.00 0.00 62 1015.5
20260510084109 6 269 0.0 1.6 0.00 0.00 0.00 62 1015.6
20260510083605 6 327 1.6 1.6 0.00 0.00 0.00 62 1015.3
20260510083102 6 327 1.6 1.6 0.00 0.00 0.00 62 1015.3
20260510082559 6 13 3.2 4.8 0.00 0.00 0.00 62 1014.9
20260510082054 6 22 4.8 4.8 0.00 0.00 0.00 62 1015.0
20260510081549 6 301 1.6 1.6 0.00 0.00 0.00 62 1015.0
20260510081045 6 257 0.0 0.0 0.00 0.00 0.00 61 1014.8
20260510080544 7 268 0.0 1.6 0.00 0.00 0.00 61 1015.1
20260510080042 7 296 1.6 1.6 0.00 0.00 0.00 61 1014.9
20260510075539 7 272 1.6 1.6 0.00 0.00 0.00 61 1014.9
20260510075036 7 275 1.6 1.6 0.00 0.00 0.00 62 1014.7
20260510074533 7 16 1.6 3.2 0.00 0.00 0.00 63 1014.4
20260510074028 7 322 3.2 3.2 0.00 0.00 0.00 64 1014.2
20260510073524 7 271 1.6 1.6 0.00 0.00 0.00 66 1014.2
20260510073022 7 263 0.0 1.6 0.00 0.00 0.00 66 1013.8
20260510072519 7 262 0.0 0.0 0.00 0.00 0.00 65 1014.0
20260510072014 7 33 1.6 1.6 0.00 0.00 0.00 65 1014.0
20260510071510 7 256 0.0 1.6 0.00 0.00 0.00 65 1013.8
20260510071009 7 264 0.0 0.0 0.00 0.00 0.00 65 1013.8
20260510070505 7 262 0.0 0.0 0.00 0.00 0.00 64 1013.7
20260510070002 7 265 0.0 0.0 0.00 0.00 0.00 64 1013.8
20260510065458 7 265 0.0 0.0 0.00 0.00 0.00 66 1013.7
20260510064954 7 266 0.0 0.0 0.00 0.00 0.00 69 1013.8
20260510064452 7 279 0.0 0.0 0.00 0.00 0.00 67 1013.4
20260510063948 8 251 0.0 0.0 0.00 0.00 0.00 66 1013.4
20260510063444 7 257 0.0 1.6 0.00 0.00 0.00 70 1013.5
20260510062942 7 256 0.0 1.6 0.00 0.00 0.00 72 1013.3
20260510062437 6 262 0.0 0.0 0.00 0.00 0.00 76 1013.1
20260510061932 7 265 0.0 0.0 0.00 0.00 0.00 74 1013.1
20260510061430 7 267 0.0 0.0 0.00 0.00 0.00 74 1013.2
20260510060925 7 266 0.0 0.0 0.00 0.00 0.00 74 1013.0
20260510060422 7 260 0.0 0.0 0.00 0.00 0.00 73 1013.3
20260510055918 7 260 0.0 0.0 0.00 0.00 0.00 73 1013.0
20260510055414 7 261 0.0 0.0 0.00 0.00 0.00 75 1012.8
20260510054906 7 265 0.0 0.0 0.00 0.00 0.00 75 1013.0
20260510054401 7 262 0.0 0.0 0.00 0.00 0.00 75 1012.7
20260510053856 7 268 0.0 0.0 0.00 0.00 0.00 76 1012.7
20260510053353 7 268 0.0 0.0 0.00 0.00 0.00 76 1012.6
20260510052849 6 265 0.0 0.0 0.00 0.00 0.00 76 1012.4
20260510052345 6 260 0.0 0.0 0.00 0.00 0.00 75 1012.0
20260510051841 7 266 0.0 0.0 0.00 0.00 0.00 74 1012.0
20260510051338 7 266 0.0 0.0 0.00 0.00 0.00 74 1012.0
20260510050835 7 268 0.0 0.0 0.00 0.00 0.00 73 1011.8
20260510050331 7 268 0.0 0.0 0.00 0.00 0.00 72 1011.8
20260510045829 7 268 0.0 0.0 0.00 0.00 0.00 72 1011.6
20260510045325 7 268 0.0 0.0 0.00 0.00 0.00 71 1011.7
20260510044822 8 268 0.0 0.0 0.00 0.00 0.00 69 1011.6
20260510044319 8 268 0.0 0.0 0.00 0.00 0.00 68 1011.4
20260510043816 8 269 0.0 0.0 0.00 0.00 0.00 68 1011.2
20260510043312 9 269 0.0 0.0 0.00 0.00 0.00 67 1011.0
20260510042809 9 277 0.0 0.0 0.00 0.00 0.00 67 1011.2
20260510042307 9 275 0.0 0.0 0.00 0.00 0.00 67 1011.1
20260510041801 9 273 0.0 0.0 0.00 0.00 0.00 66 1011.1
20260510041259 10 271 0.0 0.0 0.00 0.00 0.00 66 1011.0
20260510040757 10 268 0.0 0.0 0.00 0.00 0.00 65 1011.1
20260510040248 10 269 0.0 0.0 0.00 0.00 0.00 64 1011.1
20260510035743 10 269 0.0 0.0 0.00 0.15 0.15 63 1010.9
20260510035239 10 264 0.0 0.0 0.00 0.15 0.15 62 1011.0
20260510034734 10 267 0.0 0.0 0.00 0.15 0.15 61 1010.9
20260510034232 10 265 0.0 0.0 0.00 0.15 0.15 61 1010.7
20260510033729 11 263 0.0 0.0 0.00 0.15 0.15 60 1010.4
20260510033227 11 269 0.0 0.0 0.00 0.15 0.15 59 1010.5
20260510032722 12 266 0.0 0.0 0.00 0.15 0.15 57 1010.4
20260510032218 12 294 0.0 1.6 0.00 0.15 0.15 56 1010.4
20260510031713 12 297 0.0 1.6 0.00 0.15 0.15 55 1010.5
20260510031210 12 283 0.0 0.0 0.00 0.15 0.15 55 1010.1
20260510030704 12 346 1.6 3.2 0.00 0.15 0.15 53 1010.1
20260510030202 12 284 0.0 1.6 0.00 0.15 0.15 55 1010.1
20260510025659 12 285 0.0 1.6 0.00 0.15 0.15 54 1010.1
20260510025156 12 281 3.2 3.2 0.00 0.15 0.15 53 1009.8
20260510024653 13 268 1.6 1.6 0.00 0.15 0.15 53 1009.7
20260510024149 13 292 1.6 1.6 0.00 0.15 0.15 52 1009.9
20260510023645 13 111 1.6 1.6 0.00 0.15 0.15 52 1009.8
20260510023143 13 314 1.6 1.6 0.00 0.15 0.15 51 1009.7
20260510022642 13 264 0.0 0.0 0.00 0.15 0.15 51 1009.5
20260510022138 13 28 4.8 4.8 0.00 0.15 0.15 49 1009.4
20260510021634 14 67 3.2 8.0 0.00 0.15 0.15 49 1009.3
20260510021132 14 334 3.2 4.8 0.00 0.15 0.15 48 1009.3
20260510020626 15 316 1.6 3.2 0.00 0.15 0.15 47 1008.9
20260510020121 15 68 4.8 4.8 0.00 0.15 0.15 47 1008.8
20260510015618 15 283 3.2 3.2 0.00 0.15 0.15 46 1008.8
20260510015114 15 279 0.0 1.6 0.00 0.15 0.15 49 1008.5
20260510014609 15 326 1.6 1.6 0.00 0.15 0.15 48 1008.2
20260510014107 16 29 4.8 4.8 0.00 0.15 0.15 48 1008.2
20260510013601 16 271 1.6 3.2 0.00 0.15 0.15 48 1007.8
20260510013058 16 259 1.6 1.6 0.00 0.15 0.15 49 1007.6
20260510012551 16 47 4.8 8.0 0.00 0.15 0.15 49 1007.5
20260510012049 16 280 0.0 1.6 0.00 0.15 0.15 50 1007.5
20260510011548 16 64 1.6 1.6 0.00 0.15 0.15 50 1007.1
20260510011044 16 311 3.2 3.2 0.00 0.15 0.15 51 1007.1
20260510010541 16 346 4.8 4.8 0.00 0.15 0.15 50 1006.7
20260510010038 16 67 1.6 1.6 0.00 0.15 0.15 52 1006.7
20260510005533 16 329 1.6 3.2 0.00 0.15 0.15 51 1006.5
20260510005031 15 34 3.2 4.8 0.00 0.15 0.15 53 1006.4
20260510004529 15 272 0.0 0.0 0.00 0.15 0.15 56 1006.4
20260510004027 15 267 0.0 0.0 0.00 0.15 0.15 55 1006.1
20260510003523 16 261 0.0 0.0 0.00 0.15 0.15 54 1006.2
20260510003019 16 261 0.0 0.0 0.00 0.15 0.15 53 1006.0
20260510002514 16 256 0.0 0.0 0.00 0.15 0.15 52 1005.9
20260510002011 17 269 0.0 0.0 0.00 0.15 0.15 50 1005.7
20260510001509 17 267 0.0 0.0 0.00 0.15 0.15 48 1005.8
20260510001007 17 259 1.6 1.6 0.00 0.15 0.15 47 1005.5
20260510000501 17 314 1.6 1.6 0.00 0.15 0.15 47 1005.8
20260509235958 17 291 3.2 3.2 0.00 0.15 0.15 47 1005.8
20260509235455 17 273 0.0 0.0 0.00 0.15 0.15 46 1005.3
20260509234951 18 329 1.6 1.6 0.00 0.15 0.15 45 1005.3
20260509234448 18 7 1.6 1.6 0.00 0.15 0.15 45 1005.3
20260509233946 18 122 3.2 4.8 0.00 0.15 0.15 44 1005.3
20260509233443 18 35 1.6 3.2 0.00 0.15 0.15 43 1005.1
20260509232939 18 33 8.0 9.7 0.00 0.15 0.15 42 1005.0
20260509232438 18 260 3.2 3.2 0.00 0.15 0.15 43 1005.2
20260509231933 19 214 4.8 9.7 0.00 0.15 0.15 42 1005.0
20260509231430 19 36 4.8 8.0 0.00 0.15 0.15 42 1005.0
20260509230928 19 73 3.2 3.2 0.00 0.15 0.15 42 1005.1
20260509230424 19 41 4.8 4.8 0.00 0.15 0.15 41 1005.0
20260509225920 20 280 1.6 1.6 0.00 0.15 0.15 40 1005.0